| time (UTC) | temp F | wind direction | speed MPH | gust MPH | rain 1hr in | rain 24hr in | rain mn in | humidity % | barometer mb |
| 20260831011922 | 0 | 0.0 | 0.0 | 0.00 | 0.00 | 0.00 | 1021.8 | ||
| 20260831010911 | 0 | 0.0 | 0.0 | 0.00 | 0.00 | 0.00 | 1021.8 | ||
| 20260831005940 | 66 | 24 | 1.0 | 5.0 | 0.00 | 0.00 | 0.00 | 52 | 1021.9 |
| 20260831004949 | 66 | 24 | 1.0 | 5.0 | 0.00 | 0.00 | 0.00 | 52 | 1021.9 |
| 20260831003935 | 66 | 27 | 2.0 | 4.0 | 0.00 | 0.00 | 0.00 | 52 | 1021.9 |
| 20260831002937 | 66 | 30 | 1.0 | 5.0 | 0.00 | 0.00 | 0.00 | 52 | 1021.8 |
| 20260831002012 | 67 | 30 | 0.0 | 4.0 | 0.00 | 0.00 | 0.00 | 52 | 1021.8 |
| 20260831000947 | 67 | 31 | 0.0 | 6.0 | 0.00 | 0.00 | 0.00 | 52 | 1021.8 |
| 20260830235948 | 67 | 34 | 1.0 | 4.0 | 0.00 | 0.00 | 0.00 | 52 | 1021.8 |
| 20260830234935 | 67 | 34 | 1.0 | 5.0 | 0.00 | 0.00 | 0.00 | 51 | 1021.9 |
| 20260830233945 | 67 | 40 | 1.0 | 5.0 | 0.00 | 0.00 | 0.00 | 51 | 1021.9 |
| 20260830232949 | 68 | 28 | 1.0 | 6.0 | 0.00 | 0.00 | 0.00 | 51 | 1021.8 |
| 20260830231937 | 68 | 37 | 2.0 | 6.0 | 0.00 | 0.00 | 0.00 | 51 | 1021.8 |
| 20260830225944 | 68 | 36 | 1.0 | 5.0 | 0.00 | 0.00 | 0.00 | 52 | 1021.7 |
| 20260830224948 | 69 | 30 | 1.0 | 6.0 | 0.00 | 0.00 | 0.00 | 52 | 1021.7 |
| 20260830223937 | 69 | 26 | 0.0 | 5.0 | 0.00 | 0.00 | 0.00 | 52 | 1021.7 |
| 20260830222940 | 69 | 28 | 1.0 | 6.0 | 0.00 | 0.00 | 0.00 | 52 | 1021.6 |
| 20260830221947 | 69 | 31 | 1.0 | 5.0 | 0.00 | 0.00 | 0.00 | 52 | 1021.6 |
| 20260830220934 | 69 | 34 | 0.0 | 4.0 | 0.00 | 0.00 | 0.00 | 52 | 1021.5 |
| 20260830215936 | 69 | 37 | 0.0 | 3.0 | 0.00 | 0.00 | 0.00 | 52 | 1021.5 |
| 20260830214943 | 70 | 38 | 0.0 | 4.0 | 0.00 | 0.00 | 0.00 | 51 | 1021.5 |
| 20260830213933 | 70 | 42 | 0.0 | 5.0 | 0.00 | 0.00 | 0.00 | 51 | 1021.5 |
| 20260830212935 | 70 | 31 | 0.0 | 5.0 | 0.00 | 0.00 | 0.00 | 50 | 1021.5 |
| 20260830211943 | 71 | 28 | 0.0 | 4.0 | 0.00 | 0.00 | 0.00 | 50 | 1021.5 |
| 20260830210931 | 71 | 28 | 0.0 | 3.0 | 0.00 | 0.00 | 0.00 | 50 | 1021.5 |
| 20260830205027 | 72 | 35 | 0.0 | 4.0 | 0.00 | 0.00 | 0.00 | 48 | 1021.3 |
| 20260830203950 | 72 | 355 | 0.0 | 4.0 | 0.00 | 0.00 | 0.00 | 48 | 1021.4 |
| 20260830202949 | 72 | 355 | 0.0 | 5.0 | 0.00 | 0.00 | 0.00 | 49 | 1021.3 |
| 20260830201935 | 72 | 21 | 0.0 | 6.0 | 0.00 | 0.00 | 0.00 | 49 | 1021.1 |
| 20260830200942 | 73 | 360 | 1.0 | 5.0 | 0.00 | 0.00 | 0.00 | 48 | 1021.1 |
| 20260830195944 | 73 | 38 | 0.0 | 2.0 | 0.00 | 0.00 | 0.00 | 48 | 1020.8 |
| 20260830194937 | 73 | 5 | 0.0 | 5.0 | 0.00 | 0.00 | 0.00 | 48 | 1020.8 |
| 20260830193945 | 74 | 49 | 1.0 | 8.0 | 0.00 | 0.00 | 0.00 | 47 | 1020.6 |
| 20260830192947 | 75 | 22 | 0.0 | 0.0 | 0.00 | 0.00 | 0.00 | 46 | 1020.4 |
| 20260830191914 | 76 | 22 | 0.0 | 3.0 | 0.00 | 0.00 | 0.00 | 45 | 1020.3 |
| 20260830190924 | 76 | 21 | 0.0 | 4.0 | 0.00 | 0.00 | 0.00 | 44 | 1020.2 |
| 20260830185930 | 77 | 32 | 0.0 | 5.0 | 0.00 | 0.00 | 0.00 | 43 | 1020.0 |
| 20260830184916 | 79 | 337 | 1.0 | 5.0 | 0.00 | 0.00 | 0.00 | 42 | 1019.9 |
| 20260830183925 | 79 | 340 | 0.0 | 3.0 | 0.00 | 0.00 | 0.00 | 41 | 1019.8 |
| 20260830182926 | 80 | 140 | 0.0 | 0.0 | 0.00 | 0.00 | 0.00 | 39 | 1019.7 |
| 20260830181919 | 82 | 176 | 0.0 | 0.0 | 0.00 | 0.00 | 0.00 | 36 | 1019.7 |
| 20260830180926 | 83 | 176 | 0.0 | 1.0 | 0.00 | 0.00 | 0.00 | 30 | 1019.7 |
| 20260830175928 | 84 | 176 | 0.0 | 6.0 | 0.00 | 0.00 | 0.00 | 29 | 1019.7 |
| 20260830174916 | 84 | 161 | 0.0 | 3.0 | 0.00 | 0.00 | 0.00 | 29 | 1019.6 |
| 20260830173929 | 84 | 199 | 0.0 | 6.0 | 0.00 | 0.00 | 0.00 | 30 | 1019.6 |
| 20260830172930 | 85 | 296 | 0.0 | 1.0 | 0.00 | 0.00 | 0.00 | 29 | 1019.5 |
| 20260830171918 | 86 | 296 | 0.0 | 2.0 | 0.00 | 0.00 | 0.00 | 28 | 1019.4 |
| 20260830170911 | 86 | 297 | 1.0 | 8.0 | 0.00 | 0.00 | 0.00 | 28 | 1019.4 |
| 20260830164926 | 87 | 191 | 0.0 | 4.0 | 0.00 | 0.00 | 0.00 | 29 | 1019.3 |
| 20260830163915 | 87 | 271 | 0.0 | 7.0 | 0.00 | 0.00 | 0.00 | 29 | 1019.3 |
| 20260830161916 | 86 | 238 | 2.0 | 9.0 | 0.00 | 0.00 | 0.00 | 30 | 1019.2 |
| 20260830160925 | 87 | 190 | 2.0 | 9.0 | 0.00 | 0.00 | 0.00 | 29 | 1019.2 |
| 20260830155925 | 87 | 205 | 0.0 | 8.0 | 0.00 | 0.00 | 0.00 | 29 | 1019.3 |
| 20260830154919 | 86 | 262 | 2.0 | 10.0 | 0.00 | 0.00 | 0.00 | 30 | 1019.4 |
| 20260830153929 | 85 | 178 | 1.0 | 7.0 | 0.00 | 0.00 | 0.00 | 31 | 1019.3 |
| 20260830152929 | 86 | 190 | 2.0 | 7.0 | 0.00 | 0.00 | 0.00 | 29 | 1019.3 |
| 20260830151918 | 88 | 217 | 1.0 | 11.0 | 0.00 | 0.00 | 0.00 | 28 | 1019.3 |
| 20260830150910 | 87 | 170 | 1.0 | 7.0 | 0.00 | 0.00 | 0.00 | 29 | 1019.4 |
| 20260830145912 | 86 | 167 | 1.0 | 10.0 | 0.00 | 0.00 | 0.00 | 30 | 1019.4 |
| 20260830144959 | 87 | 179 | 1.0 | 9.0 | 0.00 | 0.00 | 0.00 | 29 | 1019.4 |
| 20260830143925 | 86 | 169 | 2.0 | 12.0 | 0.00 | 0.00 | 0.00 | 29 | 1019.6 |
| 20260830142927 | 87 | 186 | 1.0 | 7.0 | 0.00 | 0.00 | 0.00 | 29 | 1019.7 |
| 20260830141919 | 86 | 257 | 3.0 | 8.0 | 0.00 | 0.00 | 0.00 | 29 | 1019.7 |
| 20260830140927 | 86 | 173 | 1.0 | 11.0 | 0.00 | 0.00 | 0.00 | 29 | 1019.9 |
| 20260830134922 | 87 | 271 | 0.0 | 7.0 | 0.00 | 0.00 | 0.00 | 29 | 1020.2 |
| 20260830133930 | 87 | 287 | 1.0 | 7.0 | 0.00 | 0.00 | 0.00 | 29 | 1020.1 |
| 20260830132912 | 87 | 181 | 0.0 | 11.0 | 0.00 | 0.00 | 0.00 | 29 | 1020.2 |
| 20260830131919 | 86 | 159 | 0.0 | 9.0 | 0.00 | 0.00 | 0.00 | 29 | 1020.2 |
| 20260830130947 | 86 | 182 | 0.0 | 8.0 | 0.00 | 0.00 | 0.00 | 30 | 1020.3 |
| 20260830125933 | 86 | 176 | 3.0 | 9.0 | 0.00 | 0.00 | 0.00 | 29 | 1020.5 |
| 20260830124939 | 85 | 162 | 0.0 | 8.0 | 0.00 | 0.00 | 0.00 | 30 | 1020.5 |
| 20260830123947 | 85 | 196 | 5.0 | 10.0 | 0.00 | 0.00 | 0.00 | 30 | 1020.6 |
| 20260830122949 | 85 | 192 | 0.0 | 10.0 | 0.00 | 0.00 | 0.00 | 30 | 1020.8 |
| 20260830121937 | 85 | 178 | 1.0 | 7.0 | 0.00 | 0.00 | 0.00 | 30 | 1020.8 |
| 20260830120950 | 85 | 155 | 1.0 | 11.0 | 0.00 | 0.00 | 0.00 | 29 | 1020.9 |
| 20260830115933 | 85 | 213 | 0.0 | 9.0 | 0.00 | 0.00 | 0.00 | 29 | 1020.8 |
| 20260830114940 | 85 | 188 | 0.0 | 9.0 | 0.00 | 0.00 | 0.00 | 28 | 1021.0 |
| 20260830113948 | 84 | 190 | 1.0 | 13.0 | 0.00 | 0.00 | 0.00 | 29 | 1021.0 |
| 20260830112949 | 83 | 228 | 1.0 | 8.0 | 0.00 | 0.00 | 0.00 | 30 | 1021.0 |
| 20260830111935 | 82 | 161 | 1.0 | 13.0 | 0.00 | 0.00 | 0.00 | 30 | 1020.9 |
| 20260830110942 | 82 | 173 | 0.0 | 10.0 | 0.00 | 0.00 | 0.00 | 30 | 1021.0 |
| 20260830105944 | 81 | 185 | 0.0 | 9.0 | 0.00 | 0.00 | 0.00 | 30 | 1021.2 |
| 20260830104951 | 80 | 174 | 1.0 | 8.0 | 0.00 | 0.00 | 0.00 | 31 | 1021.2 |
| 20260830103938 | 81 | 183 | 3.0 | 14.0 | 0.00 | 0.00 | 0.00 | 31 | 1021.4 |
| 20260830102939 | 81 | 173 | 1.0 | 7.0 | 0.00 | 0.00 | 0.00 | 31 | 1021.3 |
| 20260830101946 | 81 | 188 | 1.0 | 7.0 | 0.00 | 0.00 | 0.00 | 31 | 1021.3 |
| 20260830100939 | 80 | 203 | 3.0 | 9.0 | 0.00 | 0.00 | 0.00 | 31 | 1021.3 |
| 20260830095940 | 80 | 162 | 2.0 | 5.0 | 0.00 | 0.00 | 0.00 | 33 | 1021.3 |
| 20260830093933 | 78 | 257 | 1.0 | 7.0 | 0.00 | 0.00 | 0.00 | 34 | 1021.4 |
| 20260830092936 | 77 | 169 | 1.0 | 8.0 | 0.00 | 0.00 | 0.00 | 34 | 1021.4 |
| 20260830091949 | 76 | 144 | 1.0 | 7.0 | 0.00 | 0.00 | 0.00 | 35 | 1021.5 |
| 20260830090944 | 75 | 117 | 0.0 | 5.0 | 0.00 | 0.00 | 0.00 | 37 | 1021.4 |
| 20260830085947 | 74 | 113 | 0.0 | 5.0 | 0.00 | 0.00 | 0.00 | 38 | 1021.4 |
| 20260830084936 | 73 | 108 | 1.0 | 3.0 | 0.00 | 0.00 | 0.00 | 39 | 1021.4 |
| 20260830083945 | 72 | 40 | 0.0 | 0.0 | 0.00 | 0.00 | 0.00 | 40 | 1021.5 |
| 20260830082951 | 71 | 40 | 0.0 | 1.0 | 0.00 | 0.00 | 0.00 | 40 | 1021.4 |
| 20260830081939 | 70 | 40 | 0.0 | 3.0 | 0.00 | 0.00 | 0.00 | 41 | 1021.5 |
| 20260830080947 | 70 | 40 | 0.0 | 0.0 | 0.00 | 0.00 | 0.00 | 41 | 1021.6 |
| 20260830075947 | 69 | 40 | 0.0 | 0.0 | 0.00 | 0.00 | 0.00 | 45 | 1021.6 |
| 20260830074935 | 67 | 40 | 0.0 | 4.0 | 0.00 | 0.00 | 0.00 | 46 | 1021.7 |
| 20260830073944 | 66 | 41 | 0.0 | 0.0 | 0.00 | 0.00 | 0.00 | 45 | 1021.6 |
| 20260830072950 | 66 | 41 | 0.0 | 0.0 | 0.00 | 0.00 | 0.00 | 47 | 1021.6 |
| 20260830071939 | 65 | 41 | 0.0 | 0.0 | 0.00 | 0.00 | 0.00 | 49 | 1021.6 |
| 20260830070947 | 64 | 41 | 0.0 | 0.0 | 0.00 | 0.00 | 0.00 | 51 | 1021.7 |
| 20260830065928 | 63 | 41 | 0.0 | 0.0 | 0.00 | 0.00 | 0.00 | 52 | 1021.7 |
| 20260830064921 | 63 | 41 | 0.0 | 0.0 | 0.00 | 0.00 | 0.00 | 53 | 1021.5 |
| 20260830063911 | 61 | 41 | 0.0 | 0.0 | 0.00 | 0.00 | 0.00 | 54 | 1021.5 |
| 20260830062914 | 60 | 41 | 0.0 | 0.0 | 0.00 | 0.00 | 0.00 | 56 | 1021.5 |
| 20260830061924 | 59 | 41 | 0.0 | 0.0 | 0.00 | 0.00 | 0.00 | 55 | 1021.5 |
| 20260830060916 | 58 | 41 | 0.0 | 0.0 | 0.00 | 0.00 | 0.00 | 56 | 1021.4 |
| 20260830055920 | 58 | 41 | 0.0 | 0.0 | 0.00 | 0.00 | 0.00 | 54 | 1021.3 |
| 20260830054930 | 59 | 41 | 0.0 | 0.0 | 0.00 | 0.00 | 0.00 | 54 | 1021.3 |
| 20260830053918 | 59 | 41 | 0.0 | 0.0 | 0.00 | 0.00 | 0.00 | 54 | 1021.3 |
| 20260830052924 | 59 | 41 | 0.0 | 0.0 | 0.00 | 0.00 | 0.00 | 53 | 1021.3 |
| 20260830051911 | 59 | 41 | 0.0 | 0.0 | 0.00 | 0.00 | 0.00 | 54 | 1021.1 |
| 20260830050918 | 58 | 41 | 0.0 | 0.0 | 0.00 | 0.00 | 0.00 | 53 | 1021.1 |
| 20260830045921 | 58 | 41 | 0.0 | 0.0 | 0.00 | 0.00 | 0.00 | 53 | 1021.0 |
| 20260830044912 | 59 | 41 | 0.0 | 0.0 | 0.00 | 0.00 | 0.00 | 52 | 1021.1 |
| 20260830043919 | 59 | 41 | 0.0 | 0.0 | 0.00 | 0.00 | 0.00 | 51 | 1021.2 |
| 20260830042922 | 60 | 41 | 0.0 | 0.0 | 0.00 | 0.00 | 0.00 | 49 | 1021.1 |
| 20260830041929 | 61 | 41 | 0.0 | 0.0 | 0.00 | 0.00 | 0.00 | 49 | 1021.1 |
| 20260830040923 | 61 | 41 | 0.0 | 0.0 | 0.00 | 0.00 | 0.00 | 48 | 1021.0 |
| 20260830034928 | 60 | 41 | 0.0 | 0.0 | 0.00 | 0.00 | 0.00 | 49 | 1021.1 |
| 20260830033917 | 59 | 41 | 0.0 | 0.0 | 0.00 | 0.00 | 0.00 | 50 | 1021.1 |
| 20260830032918 | 60 | 41 | 0.0 | 0.0 | 0.00 | 0.00 | 0.00 | 50 | 1021.2 |
| 20260830032008 | 60 | 41 | 0.0 | 0.0 | 0.00 | 0.00 | 0.00 | 50 | 1021.2 |
| 20260830030916 | 60 | 41 | 0.0 | 0.0 | 0.00 | 0.00 | 0.00 | 50 | 1021.3 |
| 20260830024915 | 61 | 41 | 0.0 | 0.0 | 0.00 | 0.00 | 0.00 | 48 | 1021.4 |
| 20260830023924 | 61 | 41 | 0.0 | 0.0 | 0.00 | 0.00 | 0.00 | 48 | 1021.4 |
| 20260830022911 | 61 | 41 | 0.0 | 0.0 | 0.00 | 0.00 | 0.00 | 47 | 1021.4 |
| 20260830021921 | 61 | 41 | 0.0 | 0.0 | 0.00 | 0.00 | 0.00 | 47 | 1021.4 |
| 20260830020931 | 62 | 0.0 | 0.0 | 0.00 | 0.00 | 0.00 | 46 | 1021.1 | |
| 20260830014944 | 63 | 41 | 0.0 | 0.0 | 0.00 | 0.00 | 0.00 | 45 | 1021.4 |
| 20260830013916 | 63 | 41 | 0.0 | 0.0 | 0.00 | 0.00 | 0.00 | 45 | 1021.4 |
| 20260830012918 | 64 | 41 | 0.0 | 0.0 | 0.00 | 0.00 | 0.00 | 44 | 1021.5 |